1st Responders/1st Detectors/Storm Spotters Weather Summary for Whitley County, KY

Forecast Maps


Reg. NEXRAD Animation


National Fire Danger: Day 1 & 2 Map

Current NWS Watch/Warnings

SPC Convective Day 1 Outlook


Day 2 Outlook

(Click images to enlarge|Page will refresh every 5 minutes)
UK Ag. Weather Center Desktop Severe Weather Service[HERE]
Whitley County, KY Hazardous Weather Outlook Webcast
(9 AM to 9 PM Mon-Fri)
[Fast]
[Dial-up]


UKAWC 1st Detectors/1st Responders Precision Weather Forecast For WHITLEY County, Kentucky
(based on the NWS County Digital Forecast)

ISSUED AT 07:00 UTC ON THURSDAY OCT 18 2018
DAY THURSDAY
EDT 3HR 4A 5A 6A 7A 8A 9A 10A 11A NOON 1P 2P 3P 4P 5P 6P 7P
MAX/MIN -- -- -- -- 34° -- -- -- -- -- -- -- -- -- -- 56°
TEMP 38° 38° 36° 34° 34° 36° 40° 43° 47° 50° 54° 56° 56° 56° 52° 49°
SKY COVER 29% 30% 32% 33% 35% 29% 23% 17% 13% 10% 6% 5% 4% 3% 2% 2%
Clouds
DEW PT 36° 36° 34° 34° 34° 36° 36° 38° 36° 36° 34° 34° 34° 34° 36° 36°
RH 92% 95% 96% 99% 100% 96% 89% 82% 67% 58% 48% 43% 43% 45% 52% 63%
POP 12HR -- -- -- -- 0% -- -- -- -- -- -- -- -- -- -- --
RAIN/SNOW (liq.equ) -- -- -- -- 0.00in -- -- -- -- -- 0.00in -- -- -- -- --
SNOWFALL -- -- -- -- 0in -- -- -- -- -- 0in -- -- -- -- --
WIND SPEED(MPH) 0 1 1 1 1 2 5 6 6 7 7 7 7 6 6 5
WIND Gust(MPH) 2 5 5 5 5 5 6 7 7 7 7 7 7 7 7 6
WIND DIR N NE NE NE NE NE NE NE NE NE NE NE NE NE NE NE
DEW Mod Dew Mod Dew Patchy Frost Patchy Frost Patchy Frost Mod Dew Lgt Dew Lgt Dew -- -- -- -- -- -- -- --
HeatIndex 38 38 36 34 34 34 36 39 47 50 54 56 56 56 52 49
Rain Showers -- -- -- -- -- -- -- -- -- -- -- -- -- -- -- --
Frost -- -- Patchy Patchy Patchy Patchy -- -- -- -- -- -- -- -- -- --
WIND CHILL -- -- -- -- -- -- 37° 39° -- -- -- -- -- -- -- --
SPRAY COND
DRY COND
LIVESTOCK COLDSTRESS
LIVESTOCK HEATSTRESS 38.92 38.57 36.50 34.14 34.00 36.50 41.14 44.56 49.14 52.03 55.37 56.88 56.88 56.85 53.80 50.99



DAY FRIDAY SATURDAY SUNDAY MONDAY TUESDAY WEDNESDAY
EDT 6HR 8P 9P 10P 11P MIDN 1A 2A 3A 4A 5A 6A 7A 8A 9A 10A 11A NOON 1P 2P 3P 5P 8P 11P 2A 5A 8A 11A 2P 5P 8P 2A 8A 2P 8P 2A 8A 2P 8P 2A 8A 2P 8P 2A 8A 2P 8P
MAX/MIN -- -- -- -- -- -- -- -- -- -- -- -- 34° -- -- -- -- -- -- -- 65° -- -- -- -- 52° -- -- 56° -- -- 36° 50° -- -- 34° 58° -- -- 40° 61° -- -- 40° 59° --
TEMP 45° 43° 43° 41° 40° 40° 38° 38° 38° 36° 34° 34° 36° 41° 47° 54° 59° 63° 65° 65° 63° 58° 56° 56° 54° 52° 52° 56° 56° 50° 41° 36° 50° 45° 38° 36° 58° 47° 45° 43° 61° 52° 45° 41° 59° 49°
SKY COVER 2% 3% 4% 5% 6% 7% 8% 9% 10% 11% 13% 14% 15% 17% 21% 23% 29% 40% 46% 51% 64% 91% 93% 98% 99% 98% 80% 66% 38% 34% 25% 11% 4% 2% 1% 3% 6% 20% 37% 47% 22% 14% 10% 12% 14% 26%
Clouds
DEW PT 38° 38° 36° 36° 36° 34° 34° 34° 34° 34° 34° 34° 34° 36° 40° 41° 43° 45° 45° 47° 47° 50° 52° 52° 52° 50° 49° 49° 45° 45° 36° 32° 29° 32° 31° 31° 34° 40° 40° 40° 41° 43° 41° 40° 41° 43°
RH 73% 79% 79% 82% 82% 82% 82% 85% 85% 88% 96% 99% 92% 82% 73% 63% 54% 52% 49% 49% 55% 77% 83% 89% 96% 92% 89% 80% 68% 79% 82% 85% 42% 62% 76% 78% 41% 76% 85% 89% 47% 70% 86% 92% 51% 79%
POP 12HR 0% -- -- -- -- -- -- -- -- -- -- -- 0% -- -- -- -- -- -- -- -- 38% -- -- -- 91% -- -- -- 61% -- 10% -- 1% -- 1% -- 2% -- 3% -- 3% -- 4% -- 9%
RAIN/SNOW (liq.equ) 0.00in -- -- -- -- -- 0.00in -- -- -- -- -- 0.00in -- -- -- -- -- 0.00in -- -- 0.01in -- 0.14in -- 0.20in -- 0.01in -- 0.00in -- -- -- -- -- -- -- -- -- -- -- -- -- -- -- --
SNOWFALL 0in -- -- -- -- -- 0in -- -- -- -- -- 0in -- -- -- -- -- 0in -- -- 0in -- 0in -- 0in -- 0in -- 0in -- -- -- -- -- -- -- -- -- -- -- -- -- -- -- --
WIND SPEED(MPH) 2 2 1 1 1 1 1 1 1 1 1 1 1 2 2 5 6 7 7 7 6 5 5 6 6 7 7 9 9 7 7 7 7 5 1 1 6 2 2 1 5 2 2 2 6 5
WIND DIR NE NE NE NE NE NE E E E E E SE SE SE S S S SW SW SW SW SW SW SW W W W W W W NW N N N SE SE SW SW SW SW W NW NE NE NE NE
HeatIndex 45 42 43 41 40 40 38 38 38 36 34 34 36 40 47 54 59 63 65 65 63 58 56 56 54 52 52 56 56 50 36 31 50 42 38 36 58 47 43 43 61 52 45 40 59 49
Rain Showers -- -- -- -- -- -- -- -- -- -- -- -- -- -- -- -- -- -- Slight Chance Slight Chance Chance Chance Likely Definite Definite Likely Chance Slight Chance -- -- -- -- -- -- -- -- -- -- -- -- -- -- -- -- -- --
Frost -- -- -- -- -- -- -- -- -- Areas of Areas of Patchy Patchy -- -- -- -- -- -- -- -- -- -- -- -- -- -- -- -- -- -- Areas of -- -- -- Areas of -- -- -- -- -- -- -- -- -- --
WIND CHILL -- -- -- -- -- -- -- -- -- -- -- -- -- -- -- -- -- -- -- -- -- -- -- -- -- -- -- -- -- -- 36° 30° -- 43° -- -- -- -- -- -- -- -- -- -- -- --
SPRAY COND
DRY COND
LIVESTOCK COLDSTRESS
LIVESTOCK HEATSTRESS 47.05 44.82 44.82 42.76 41.86 41.86 40.06 39.72 39.72 37.50 34.55 34.14 37.00 42.76 48.75 54.98 58.95 61.89 63.26 63.26 61.96 58.10 56.26 56.17 54.11 52.30 52.41 56.31 56.49 51.02 42.76 37.88 52.81 47.88 40.75 38.76 58.26 48.56 46.14 43.96 60.36 53.12 46.06 41.78 58.95 50.13

Click on individual weather variable above in left-hand column (ie., TEMP, RH, QPF 12HR) to view state forecast maps






NWS 48 Hr. Forecast Maps,

Regional Hourly Observations For WHITLEY County, Kentucky
Issued at 300 AM EDT THU OCT 18 2018
...EASTERN KENTUCKY...
  
CITY           SKY/WX    TMP DP  RH WIND       PRES   REMARKS
JACKSON          N/A     44  35  70 CALM      30.43S                  
LONDON           N/A     45  38  76 NE7       30.42S                  
SOMERSET*        N/A     45  36  70 NE3       30.45R                  
MONTICELLO*      N/A     45  37  73 NW8       30.45S                  
WILLIAMSBURG*    N/A     43  39  87 CALM      30.42S                  
MIDDLESBORO*     N/A     47  39  75 N5        30.41S                  
HARLAN APT*      N/A     45  38  76 NE3       30.41R                  
PIKE CO APT*     N/A     44  35  71 N5        30.43S                  
BIG SANDY APT*   N/A     43  37  79 N5        30.44S                  
MOREHEAD APT*    N/A     41  32  70 VRB7G14   30.47S                  
ASHLAND*         N/A     42  33  70 VRB3      30.47S                  


Current NOWCAST not available:
Nowcasts are not issued routinely during fair weather. Only when
precipitation or other significant weather is occuring in this county will these
forecasts be issued. Currently, there is no short term forecast in effect.


Fire Weather Forecast For WHITLEY County, KY
Provided by the National Weather Service:

Issued at: Thu Oct 18 03:05:01 EDT 2018

                      Tonight      Thu          Thu Night    Fri          

Cloud Cover           MClear       MClear       MClear       PCldy        
Chance precip (%)     0            0            0            30           
Precip type           None         None         None         showers      
Temp (24H TREND)      31-37 (-6)   54-57 (-9)   31-40        63-66        
Rh % (24H TREND)      89-100 (0)   37-42 (-3)   76-100       44-49        
20ftwnd-AM(mph)                    NE 2-6                    Lgt/Var      
20ftwnd-PM(mph)       NW 2-6       NE 2-6       Lgt/Var      SW 3-7       
Precip duration                                              1            
Precip begin                                                              
Precip end                                                                
Precip amount         0.00         0.00         0.00         0.00         
LAL                   1            1            1            1            
Haines Index (MID)                 4                         4            
Mixing hgt(ft-AGL)                 2500                      2900         
Transport wnd (mph)                NE  8                     SW 15        
Vent rate (kt-ft)                  18313                     36268        
ADI Early             8 Poor       27 Fair      4 Very Poor  39 Fair      
ADI Late              14 Gen Poor  24 Fair      7 Poor       45 Gen Good  
Max LVORI Early       5            6            6            5            
Max LVORI Late        8            3            7            3            

REMARKS...RANGES OF MIN T EXCEEDING 8 DEGREES & RANGES OF MAX RH        
EXCEEDING 10% INDICATE THE LIKELIHOOD OF THERMAL BELTS. ADI IS        
ATMOSPHERIC DISPERSION INDEX BY LAVDAS. DISPERSION INDEX IS        
MAGNITUDE OF VENT RATE DIVIDED BY 1000.


SPC's Fire Weather Web Tool (Excellent!), SPC's Fire Weather Outlooks, NWS Fire Weather WEB, Fire Danger Class Map,
Keetch-Byram Drought Index, ROMAN Web, Haines Index ,
WFAS's 10-hr Dead Fuel Moist., WFAS's 100-hr Dead Fuel Moist., Probablity of Ignition, Visual blackness Map, Palmer Drought Index, HPC's Rainfall Forecast Maps


Hazardous Weather Outlook For WHITLEY County, Kentucky
330 PM EDT Wed Oct 17 2018

   FROST ADVISORY IN EFFECT FROM 2 AM TO 10 AM EDT THURSDAY  

This hazardous weather outlook is for portions of eastern Kentucky.

 DAY ONE  Tonight.

Near freezing temperatures will promote frost development across
much of eastern Kentucky overnight. Please see the latest frost
advisory for more information. 

 DAYS TWO THROUGH SEVEN  Thursday through Tuesday.

There is a good chance of near freezing temperatures and frost 
development again Friday morning as well as Monday morning, 
especially in the valley locations. 

 SPOTTER INFORMATION STATEMENT  

Spotter activation is not anticipated.

Latest WHITLEY County, Kentucky Watches, Warnings and Advisories.
Additional Drought Info.: UKAWC Drought Page, Kentucky Drought Watch


7-Day Forecast For WHITLEY County, KY


FROST ADVISORY IN EFFECT FROM 2 AM TO 10 AM EDT THURSDAY

REST OF TONIGHT
Cold. Mostly clear. Patchy valley fog late. Patchy frost near dawn. Lows in the mid 30s. Light winds.

THURSDAY
Sunny. Patchy valley fog and frost early. Highs in the upper 50s. Light winds.

THURSDAY NIGHT
Cold. Mostly clear. Areas of frost. Lows in the mid 30s. Light winds.

FRIDAY
Sunny in the morning, then partly sunny with a 40 percent chance of rain showers in the afternoon. Highs in the upper 60s. Light winds.

FRIDAY NIGHT
Showers. Lows in the lower 50s. Light winds. Chance of rain 90 percent.

SATURDAY
Partly sunny with showers likely. Highs in the upper 50s. Chance of rain 60 percent.

SATURDAY NIGHT
Mostly clear. Patchy frost. Lows in the upper 30s.

SUNDAY
Sunny. Highs in the lower 50s.

SUNDAY NIGHT
Cold, clear. Areas of frost. Lows in the mid 30s.

MONDAY
Sunny. Highs around 60.

MONDAY NIGHT
Partly cloudy. Lows in the lower 40s.

TUESDAY
Sunny. Highs in the lower 60s.

TUESDAY NIGHT
Mostly clear. Lows in the lower 40s.

WEDNESDAY
Sunny. Highs in the lower 60s.

Ag Weather Center, Department of Biosystems & Agricultural Engineering, University of Kentucky